Location: Codford Saint Peter
(51.1597°N, 2.0531°W)
Time: 17:26:53
(UTC+00:00)

Cosmos 1844 Rocket - Pass Details

Date: 18 September 2020
Orbit: 823 x 846 km, 71.0° (Epoch: 30 October)

Event Time Altitude Azimuth Distance (km) Brightness Sun altitude
Rises 19:38:46 0° 178° (S) 3,346 5.6 -13.7°
Reaches altitude 10° 19:41:22 10° 169° (S) 2,419 4.8 -14.1°
Maximum altitude 19:46:17 34° 107° (ESE) 1,347 3.2 -14.8°
Drops below altitude 10° 19:51:14 10° 44° (NE) 2,443 4.9 -15.5°
Sets 19:53:52 0° 36° (NE) 3,385 5.7 -15.9°
